www.pogodaiklimat.ru

Погода и климат >> Архив погоды >> Россия >> Коми >> Объячево


ПОГОДА в Объячеве

  • Прогноз погоды в Объячеве
  • Монитор погоды в Объячеве

АРХИВ ПОГОДЫ в Объячеве

Время (UTC), дата Ветер
(напр.,м/с)
 
Видим.   Явления Облачность Т
(С)
Тd
(С)
f
(%)
Тe
(С)
Тes
(С)
Комфортность P
(гПа)
Po
(гПа)
Тmin
(С)
Tmax
(С)
R
(мм)
R24
(мм)
S
(см)
00 17.04 С 2 20 км ясно -9.2 -17.1 53 -13 -13 1035.8 1016.0
03 17.04 С 2 50 км 4/0
[Ci fib]
-9.4 -16.7 55 -14 -13 1037.0 1017.2 -10.2 26
06 17.04 СЗ 1 50 км 4/0
[Cs]
-4.7 -18.7 33 -6 +1 1037.0 1017.5
09 17.04 С 2 50 км 3/0
[Cs]
-1.0 -18.3 26 -4 +6 1035.9 1016.7
12 17.04 З 2 50 км 3/0
[Cs]
+2.1 -19.6 18 0 +5 1033.9 1015.0
15 17.04 СЗ 2 50 км 3/0
[Cs]
+1.3 -19.3 20 -1 -0 1031.8 1012.8 +2.6
18 17.04 В 1 20 км 1/0
[As op]
-3.8 -15.1 41 -5 -5 1031.5 1012.2
21 17.04 Ю 1 20 км 6/0
[As op Ci fib]
-5.4 -16.4 42 -7 -7 1030.8 1011.4
00 18.04 Ю 1 20 км 6/0
[Ci fib]
-9.1 -14.8 63 -11 -11 1030.2 1010.6
03 18.04 Ю 1 50 км 8/0
[Cs]
-5.9 -15.5 47 -8 -7 1029.8 1010.4 -10.2 25
06 18.04 Ю 1 50 км 4/0
[Ac trans Cs]
+3.2 -15.6 24 +3 +10 1028.9 1010.2
09 18.04 З 3 50 км 3/0
[Ac trans Ci fib]
+5.6 -13.0 25 +3 +11 опасность
простуды
1028.4 1009.8
12 18.04 СЗ 3 50 км 4/3 600 м
[Cu hum Ac lent Ci fib]
+6.3 -11.6 26 +4 +7 1028.1 1009.6
15 18.04 С 2 50 км 4/0
[Ac trans Ci fib]
+5.4 -10.4 31 +4 +4 1027.9 1009.3 +6.6
18 18.04 С 1 20 км 6/0
[Ac As]
+1.4 -10.7 40 +1 +1 1028.6 1009.7
21 18.04 штиль 0 20 км 9/0
[Ac As]
+0.6 -8.6 50 0 0 1028.6 1009.7
00 19.04 штиль 0 20 км 9/0
[Ac As]
+0.6 -7.2 56 0 0 1028.5 1009.6
03 19.04 З 1 20 км 9/0
[Ac As]
+1.0 -5.7 61 -0 0 1027.9 1009.0 -0.3 23
06 19.04 С 4 50 км 9/8 600 м
[Sc Ac trans]
+2.8 -4.9 57 -1 -1 1027.5 1008.7
09 19.04 СЗ 2 50 км в посл. час дождь 10/10 600 м
[Sc]
+3.2 -4.6 57 +1 +1 1027.1 1008.4
12 19.04 СЗ 2 20 км {снег, дождь} 10/10 600 м
[Sc]
+3.4 -4.8 55 +1 +1 1026.3 1007.6
15 19.04 С 1 20 км 9/9 600 м
[Sc]
+3.1 -4.9 56 +2 +2 1025.4 1006.7 +3.5 0.0
18 19.04 Ю 1 20 км 9/9 600 м
[Sc]
+1.3 -4.7 64 -0 -0 1025.2 1006.4
21 19.04 штиль 0 20 км 9/8 600 м
[Sc Ac As]
-0.2 -4.1 75 -1 -1 1025.0 1006.1
00 20.04 Ю 1 20 км 8/0
[Ac As]
-1.1 -4.1 80 -3 -3 1025.2 1006.2
03 20.04 Ю 2 20 км 8/3 600 м
[Sc Ac As]
-0.2 -3.6 78 -4 -3 1025.5 1006.2 -1.2 20
06 20.04 С 1 50 км 8/8 600 м
[Cu Sc]
+4.0 -4.3 55 +3 +5 1026.0 1007.4
09 20.04 З 1 50 км 8/8 600 м
[Cu Sc]
+6.7 -6.9 37 +7 +9 1026.3 1007.8
12 20.04 З 1 50 км 3/1 600 м
[Cu hum Ci fib]
+9.4 -7.4 30 +10 +15 1025.8 1007.5
15 20.04 СВ 2 50 км 3/0
[Cs]
+7.5 -6.8 35 +6 +7 1025.5 1007.1 +9.5
18 20.04 ЮВ 1 20 км 1/0
[Ci fib]
+1.9 -5.9 56 +1 +1 1026.5 1007.7
21 20.04 Ю 1 20 км 4/0
[Ci fib]
-1.9 -6.1 73 -4 -4 1027.0 1007.9
00 21.04 штиль 0 20 км 5/0
[Cs]
-3.2 -6.3 79 -4 -4 1026.6 1007.5
03 21.04 Ю 1 20 км 6/0
[Cs]
-0.5 -6.1 66 -2 -1 1026.7 1007.7 -4.3 19
06 21.04 З 2 50 км 4/0
[Ci fib]
+8.9 -6.2 34 +8 +14 1025.9 1007.6
09 21.04 СЗ 4 50 км 8/0
[Ci fib]
+11.2 -6.0 29 +10 +15 1024.9 1006.7
12 21.04 СЗ 2 50 км 8/0
[Ci fib]
+12.8 -5.6 27 +13 +17 1023.6 1005.6
15 21.04 СЗ 2 50 км 8/0
[Ac trans Cs]
+11.4 -5.6 30 +11 +11 1022.8 1004.7 +12.9
18 21.04 ЮЗ 1 20 км 6/0
[Cc]
+7.7 -5.6 38 +8 +8 1022.9 1004.6
21 21.04 штиль 0 20 км местами туман поземный 4/0
[Cc]
+3.0 -4.8 57 +3 +3 1023.3 1004.6
00 22.04 Ю 1 20 км ясно -1.1 -4.8 76 -3 -3 1023.5 1004.6
03 22.04 Ю 2 50 км 4/0
[Cs]
+2.2 -4.5 61 -1 +1 1023.0 1004.3 -1.6 12
06 22.04 З 4 50 км 9/0
[Cs]
+9.7 -4.8 36 +8 +12 1021.6 1003.4
09 22.04 З 4 50 км 8/0
[Cs]
+12.3 -10.5 19 +11 +17 1020.2 1002.2
12 22.04 З 5
{11}
50 км 9/0
[Cs]
+14.1 -10.2 18 +13 +15 1017.9 1000.0
15 22.04 З 4
{10}
20 км 9/0
[Ac cast Ci]
+11.6 -11.3 19 +10 +10 1017.6 999.6 +14.2
18 22.04 СЗ 4 20 км 10/0
[Ac As]
+8.7 -5.0 38 +6 +6 1018.4 1000.2
21 22.04 СЗ 3
{10}
20 км {дождь} 10/0
[Ac As]
+4.2 +1.3 81 +1 +1 1019.1 1000.7
00 23.04 С 3 20 км {дождь} 9/0
[Ac As]
+3.4 -0.2 77 -0 -0 1020.1 1001.6
03 23.04 СЗ 2 20 км 9/3 600 м
[Sc Ac As]
+2.9 +0.2 82 -0 0 1021.4 1002.8 +2.6 0.0 4
06 23.04 С 3 50 км 8/8 600 м
[Cu hum Ci fib]
+5.5 -1.3 62 +3 +4 1022.1 1003.7
09 23.04 СЗ 4 50 км 10/10 600 м
[Cb cap]
+7.5 -3.0 47 +5 +5 1021.9 1003.6
12 23.04 СЗ 2 50 км 9/4 600 м
[Cu hum As op]
+8.8 -4.8 38 +8 +9 1021.1 1002.8
15 23.04 З 2 20 км 10/3 600 м
[Sc diur, vesp Ac As]
+7.9 -3.5 44 +7 +7 1019.7 1001.5 +9.5
18 23.04 ЮЗ 2 10 км слаб. дождь 10/5 300 м
[Sc As op]
+6.0 -1.7 58 +4 +4 1018.4 1000.1
21 23.04 ЮЗ 2 50 км {дождь} ?/? +6.1 -2.5 54 +4 +4 1016.3 998.0

 

Местоположение метеостанции Объячево (Коми, Россия): широта 60.37 долгота 49.65 высота над уровнем моря 152 м.

В архиве по умолчанию представлена погода в Объячеве за последнюю неделю. Архивные данные за месяц целиком и за предыдущие месяцы, начиная с января 2011 года, Вы можете получить, выбрав интересующий диапазон дат из раскрывающегося списка и нажав кнопку "Ввод!".


*Определитесь, кто Вы:
робот инопланетянин человек

Внимание! Время в таблицах - всемирное. Для получения местного времени необходимо прибавить поправку, которая равна 3 ч.

Смотрите также архив погоды в соседних городах и на ближайших метеорологических станциях:

Погода в Койгородке (Коми, Россия) (73 км)
Погода в Пустоши (Коми, Россия) (90 км)
Погода в Опарино (Кировская область, Россия) (95 км)
Погода в Лальске (Кировская область, Россия) (118 км)
Погода в Вилегодском (Архангельская область, Россия) (124 км)
Погода в Нагорске (Кировская область, Россия) (134 км)
Погода в Сыктывкаре (Коми, Россия) (158 км)
Погода в Усть-Черной (Пермский край, Россия) (164 км)
Погода в Слободчиково (Архангельская область, Россия) (171 км)
Погода в Белой Холунице (Кировская область, Россия) (184 км)

Пояснения к столбцам:

Ветер - указаны скорость ветра в м/с - средняя за 10 мин, порывы в срок и между сроками (в фигурных скобках) и направление, откуда дует ветер: С - северный, СВ - северо-восточный, В - восточный, ЮВ - юго-восточный, Ю - южный, ЮЗ - юго-западный, З - западный, СЗ - северо-западный.
Видимость - горизонтальная дальность видимости в метрах или километрах. При видимости от 1 до 10 км при отсутствии осадков обычно наблюдается дымка, при ухудшении видимости до 1 км и менее - туман. В сухую погоду видимость может ухудшаться дымом, пылью или мглою.
Явления - указаны атмосферные явления, наблюдавшиеся в срок или в последний час перед сроком; фигурными скобками обозначены явления, наблюдавшиеся между сроками (за 1-3 часа до срока); квадратными скобками обозначены град или гололедные отложения с указанием их диаметра в мм.
Облачность - указаны через наклонную черту общая и нижняя облачность в баллах и высота нижней границы облаков в метрах; квадратными скобками обозначены формы облаков: Ci - перистые, Cs - перисто-слоистые, Cc - перисто-кучевые, Ac - высококучевые, As - высокослоистые, Sc - слоисто-кучевые, Ns - слоисто-дождевые, Cu - кучевые, Cb - кучево-дождевые. Подробнее классификацию облаков см. в Атласе облаков (PDF).
T - Температура воздуха - температура, измеренная на высоте 2 м над землей.
Td - Температура точки росы - температура, при понижении до которой содержащийся в воздухе водяной пар достигнет насыщения.
f - Относительная влажность воздуха - влажноcть воздуха, измеренная на высоте 2 м над землей.
Te - Эффективная температура - температура, которую ощущает одетый по сезону человек в тени. Характеристика душности погоды. При расчете учитывается влияние влажности воздуха и скорости ветра на теплоощущения человека.
Tes - Эффективная температура на солнце - температура, которую ощущает человек, с поправкой на солнечный нагрев. Характеристика знойности погоды. Зависит от высоты солнца над горизонтом, облачности и скорости ветра. Ночью, в пасмурную погоду, а также при ветре 12 м/с и более поправка равна нулю.
P - Атмосферное давление - приведенное к уровню моря атмосферное давление.
Po - Атмосферное давление - измеренное на уровне метеостанции атмосферное давление.
Tmin - Минимальная температура - минимум температуры воздуха на высоте 2 м над землей.
Tmax - Максимальная температура - максимум температуры воздуха на высоте 2 м над землей.
R - Количество осадков - Количество выпавших осадков за период времени, мм. При наведении курсора мыши на число - период времени, за который выпало указанное количество осадков.
R24 - Количество осадков - Количество выпавших осадков за 24 часа, мм.
S - Снежный покров - Высота снежного покрова, см. При наведении курсора мыши на число - состояние снежного покрова и степень покрытия местности в баллах.